QPF
0.01 0.00 0.01 0.01 0.01 0.01 0.01 0.01 0.01 0.01 0.00 0.00 0.00 0.00 0.00 0.00 0.00 0.00 0.00 0.00 0.00 0.01 0.01 0.01 0.00 0.00 0.01 0.00 0.00 0.00 0.00 0.01 0.01 0.00 0.00 0.00 0.00 0.01 0.01 0.01 0.01 0.01 0.01
0.01 0.00 0.01 0.01 0.01 0.01 0.01 0.01 0.01 0.01 0.01 0.00 0.01 0.01 0.00 0.00 0.01 0.01 0.01 0.01 0.01 0.01 0.03 0.02 0.01 0.01 0.01 0.00 0.01 0.01 0.00 0.00 0.00 0.00 0.00 0.00 0.00 0.01 0.01 0.01 0.00 0.00 0.00
0.01 0.00 0.01 0.01 0.01 0.01 0.01 0.01 0.01 0.01 0.01 0.01 0.01 0.01 0.01 0.01 0.01 0.01 0.01 0.02 0.01 0.01 0.02 0.03 0.03 0.02 0.01 0.00 0.01 0.00 0.00 0.00 0.00 0.00 0.00 0.00 0.00 0.01 0.00 0.00 0.00 0.01 0.01
0.00 0.00 0.00 0.01 0.01 0.01 0.01 0.01 0.01 0.01 0.02 0.02 0.01 0.01 0.01 0.02 0.01 0.01 0.02 0.02 0.02 0.01 0.01 0.03 0.04 0.02 0.01 0.01 0.01 0.00 0.00 0.00 0.00 0.00 0.00 0.00 0.00 0.00 0.00 0.00 0.00 0.01 0.01
0.00 0.00 0.00 0.01 0.02 0.01 0.01 0.01 0.01 0.01 0.02 0.02 0.02 0.03 0.02 0.02 0.03 0.03 0.02 0.03 0.02 0.01 0.01 0.02 0.02 0.03 0.02 0.02 0.01 0.00 0.00 0.00 0.00 0.00 0.00 0.00 0.00 0.00 0.00 0.00 0.00 0.00 0.00
0.01 0.00 0.00 0.01 0.02 0.02 0.02 0.02 0.02 0.02 0.02 0.03 0.03 0.04 0.03 0.03 0.03 0.03 0.03 0.03 0.02 0.01 0.01 0.01 0.02 0.02 0.03 0.02 0.01 0.01 0.01 0.00 0.00 0.00 0.00 0.00 0.01 0.01 0.00 0.00 0.00 0.00 0.00
0.01 0.01 0.01 0.01 0.01 0.02 0.03 0.02 0.02 0.03 0.03 0.03 0.03 0.04 0.04 0.03 0.04 0.05 0.03 0.02 0.01 0.01 0.02 0.01 0.01 0.02 0.02 0.01 0.01 0.01 0.01 0.00 0.00 0.00 0.00 0.00 0.00 0.01 0.00 0.00 0.01 0.00 0.00
0.01 0.02 0.01 0.01 0.01 0.02 0.02 0.02 0.02 0.03 0.03 0.04 0.03 0.03 0.03 0.04 0.04 0.04 0.03 0.02 0.02 0.02 0.02 0.02 0.01 0.01 0.01 0.01 0.01 0.01 0.01 0.00 0.00 0.00 0.00 0.00 0.00 0.01 0.00 0.00 0.00 0.00 0.00
0.01 0.01 0.01 0.01 0.01 0.01 0.02 0.02 0.03 0.03 0.03 0.03 0.04 0.04 0.03 0.03 0.03 0.03 0.03 0.03 0.02 0.02 0.02 0.02 0.03 0.02 0.01 0.01 0.01 0.01 0.01 0.01 0.00 0.00 0.00 0.00 0.00 0.01 0.00 0.01 0.00 0.00 0.00
0.01 0.02 0.02 0.02 0.01 0.01 0.01 0.02 0.03 0.03 0.02 0.03 0.03 0.03 0.03 0.02 0.02 0.03 0.03 0.03 0.02 0.02 0.02 0.02 0.03 0.03 0.02 0.01 0.01 0.01 0.01 0.01 0.01 0.00 0.00 0.00 0.00 0.00 0.01 0.01 0.00 0.00 0.00
0.01 0.02 0.03 0.02 0.02 0.01 0.01 0.02 0.03 0.03 0.03 0.02 0.02 0.02 0.02 0.02 0.01 0.02 0.02 0.02 0.02 0.02 0.02 0.03 0.03 0.03 0.02 0.01 0.01 0.01 0.01 0.01 0.01 0.00 0.00 0.00 0.00 0.00 0.01 0.01 0.00 0.00 0.00
0.01 0.01 0.03 0.03 0.02 0.02 0.02 0.02 0.03 0.04 0.04 0.03 0.02 0.02 0.02 0.01 0.01 0.01 0.01 0.02 0.02 0.02 0.03 0.04 0.05 0.04 0.03 0.02 0.02 0.02 0.01 0.01 0.02 0.01 0.00 0.00 0.00 0.01 0.01 0.01 0.00 0.00 0.00
0.00 0.01 0.01 0.02 0.02 0.03 0.03 0.04 0.04 0.05 0.05 0.04 0.03 0.03 0.03 0.02 0.01 0.02 0.01 0.02 0.03 0.03 0.03 0.04 0.06 0.05 0.04 0.03 0.02 0.02 0.02 0.02 0.02 0.02 0.00 0.00 0.00 0.01 0.01 0.01 0.01 0.00 0.00
0.00 0.01 0.01 0.02 0.02 0.02 0.03 0.05 0.07 0.07 0.07 0.05 0.03 0.03 0.02 0.02 0.02 0.02 0.02 0.02 0.03 0.03 0.03 0.03 0.03 0.04 0.03 0.03 0.02 0.02 0.01 0.01 0.01 0.01 0.01 0.00 0.00 0.01 0.01 0.01 0.00 0.00 0.00
0.00 0.00 0.01 0.01 0.01 0.02 0.03 0.04 0.07 0.09 0.11 0.08 0.05 0.04 0.04 0.03 0.02 0.02 0.03 0.03 0.03 0.03 0.03 0.05 0.04 0.03 0.03 0.02 0.02 0.02 0.01 0.01 0.01 0.00 0.00 0.00 0.00 0.00 0.01 0.01 0.00 0.00 0.00
0.00 0.00 0.01 0.01 0.01 0.02 0.03 0.05 0.06 0.07 0.10 0.10 0.06 0.05 0.05 0.04 0.03 0.02 0.03 0.04 0.03 0.03 0.04 0.06 0.06 0.05 0.04 0.02 0.02 0.02 0.03 0.02 0.01 0.01 0.00 0.00 0.00 0.00 0.00 0.01 0.00 0.00 0.00
0.00 0.00 0.01 0.01 0.02 0.03 0.03 0.05 0.06 0.07 0.08 0.08 0.05 0.04 0.06 0.06 0.05 0.05 0.04 0.05 0.04 0.04 0.04 0.06 0.08 0.07 0.05 0.04 0.02 0.02 0.03 0.04 0.04 0.02 0.01 0.00 0.00 0.00 0.00 0.00 0.00 0.00 0.00
0.00 0.00 0.01 0.03 0.02 0.03 0.03 0.05 0.07 0.07 0.07 0.06 0.04 0.04 0.05 0.06 0.05 0.06 0.06 0.06 0.07 0.07 0.06 0.05 0.06 0.08 0.07 0.06 0.04 0.04 0.04 0.04 0.05 0.05 0.03 0.02 0.01 0.01 0.00 0.00 0.00 0.00 0.00
0.00 0.00 0.01 0.03 0.04 0.04 0.03 0.06 0.07 0.07 0.07 0.05 0.04 0.04 0.04 0.05 0.06 0.06 0.07 0.07 0.08 0.10 0.08 0.05 0.06 0.07 0.07 0.06 0.05 0.05 0.05 0.05 0.05 0.05 0.04 0.03 0.02 0.02 0.01 0.00 0.00 0.00 0.00
0.00 0.00 0.01 0.02 0.04 0.04 0.03 0.05 0.08 0.09 0.08 0.07 0.06 0.04 0.05 0.06 0.07 0.08 0.09 0.09 0.09 0.10 0.13 0.10 0.06 0.06 0.06 0.06 0.06 0.06 0.05 0.06 0.07 0.07 0.06 0.04 0.03 0.02 0.02 0.01 0.00 0.00 0.00
0.01 0.01 0.01 0.02 0.02 0.03 0.03 0.04 0.06 0.07 0.07 0.06 0.05 0.05 0.06 0.07 0.08 0.10 0.11 0.13 0.12 0.10 0.13 0.16 0.13 0.08 0.08 0.08 0.09 0.09 0.07 0.07 0.08 0.08 0.08 0.08 0.05 0.04 0.03 0.02 0.01 0.00 0.00
0.01 0.01 0.02 0.01 0.01 0.02 0.03 0.03 0.05 0.06 0.05 0.04 0.03 0.04 0.06 0.08 0.08 0.11 0.13 0.14 0.14 0.11 0.11 0.14 0.15 0.12 0.09 0.09 0.11 0.13 0.11 0.09 0.07 0.06 0.07 0.07 0.08 0.06 0.05 0.03 0.02 0.01 0.00
0.01 0.01 0.01 0.01 0.01 0.02 0.03 0.03 0.04 0.06 0.06 0.05 0.04 0.04 0.05 0.07 0.09 0.11 0.14 0.15 0.14 0.12 0.10 0.10 0.12 0.12 0.10 0.09 0.08 0.10 0.11 0.08 0.06 0.06 0.06 0.06 0.07 0.08 0.06 0.04 0.02 0.01 0.01
0.01 0.00 0.01 0.01 0.02 0.04 0.05 0.06 0.04 0.05 0.06 0.05 0.04 0.04 0.06 0.08 0.10 0.09 0.10 0.12 0.14 0.14 0.11 0.10 0.13 0.14 0.13 0.12 0.09 0.08 0.08 0.07 0.06 0.05 0.05 0.05 0.05 0.05 0.06 0.05 0.03 0.02 0.01
0.01 0.01 0.01 0.01 0.01 0.03 0.05 0.07 0.08 0.06 0.05 0.04 0.03 0.04 0.07 0.08 0.07 0.07 0.09 0.10 0.13 0.15 0.15 0.13 0.13 0.14 0.14 0.13 0.11 0.08 0.07 0.06 0.06 0.06 0.05 0.04 0.04 0.04 0.04 0.04 0.04 0.03 0.02
0.01 0.01 0.02 0.02 0.02 0.03 0.04 0.06 0.07 0.07 0.05 0.04 0.03 0.03 0.07 0.09 0.06 0.07 0.08 0.09 0.10 0.14 0.17 0.16 0.15 0.15 0.16 0.15 0.12 0.11 0.08 0.07 0.06 0.05 0.05 0.04 0.04 0.03 0.03 0.03 0.03 0.03 0.03
MSLP
1019.99 1019.16 1018.29 1017.49 1016.86 1016.42 1016.17 1016.06 1016.02 1015.98 1015.90 1015.78 1015.63 1015.49 1015.41 1015.40 1015.46 1015.59 1015.74 1015.86 1015.94 1015.97 1015.94 1015.90 1015.86 1015.86 1015.90 1015.97 1016.07 1016.17 1016.25 1016.30 1016.33 1016.35 1016.39 1016.45 1016.53 1016.63 1016.72 1016.77 1016.78 1016.73 1016.64
1020.18 1019.37 1018.53 1017.77 1017.17 1016.74 1016.48 1016.34 1016.24 1016.14 1016.00 1015.83 1015.66 1015.52 1015.45 1015.46 1015.55 1015.69 1015.84 1015.96 1016.03 1016.03 1015.99 1015.93 1015.88 1015.87 1015.90 1015.97 1016.06 1016.16 1016.24 1016.31 1016.36 1016.41 1016.47 1016.56 1016.67 1016.79 1016.89 1016.96 1016.97 1016.93 1016.85
1020.26 1019.49 1018.70 1018.00 1017.45 1017.06 1016.81 1016.65 1016.51 1016.36 1016.17 1015.95 1015.74 1015.58 1015.49 1015.49 1015.57 1015.70 1015.84 1015.94 1015.98 1015.97 1015.92 1015.86 1015.81 1015.81 1015.85 1015.93 1016.04 1016.14 1016.25 1016.33 1016.41 1016.48 1016.57 1016.69 1016.81 1016.94 1017.06 1017.13 1017.16 1017.13 1017.07
1020.25 1019.53 1018.81 1018.20 1017.72 1017.39 1017.16 1016.99 1016.82 1016.62 1016.38 1016.11 1015.85 1015.64 1015.52 1015.48 1015.53 1015.62 1015.72 1015.79 1015.82 1015.80 1015.75 1015.71 1015.69 1015.71 1015.78 1015.88 1016.01 1016.15 1016.27 1016.38 1016.48 1016.58 1016.69 1016.82 1016.96 1017.09 1017.20 1017.29 1017.32 1017.32 1017.29
1020.20 1019.55 1018.92 1018.40 1018.01 1017.73 1017.53 1017.35 1017.15 1016.90 1016.59 1016.26 1015.94 1015.68 1015.50 1015.42 1015.41 1015.45 1015.51 1015.55 1015.56 1015.54 1015.52 1015.50 1015.52 1015.58 1015.70 1015.85 1016.01 1016.18 1016.33 1016.46 1016.58 1016.70 1016.82 1016.94 1017.08 1017.20 1017.31 1017.39 1017.44 1017.46 1017.46
1020.19 1019.61 1019.08 1018.65 1018.33 1018.11 1017.92 1017.72 1017.47 1017.15 1016.78 1016.38 1016.00 1015.68 1015.45 1015.31 1015.24 1015.23 1015.24 1015.25 1015.25 1015.24 1015.24 1015.27 1015.34 1015.45 1015.62 1015.81 1016.01 1016.21 1016.38 1016.53 1016.67 1016.79 1016.91 1017.03 1017.15 1017.26 1017.36 1017.44 1017.50 1017.54 1017.58
1020.24 1019.74 1019.30 1018.96 1018.71 1018.51 1018.31 1018.07 1017.76 1017.37 1016.93 1016.46 1016.03 1015.65 1015.37 1015.17 1015.06 1014.99 1014.96 1014.94 1014.93 1014.93 1014.95 1015.02 1015.14 1015.31 1015.52 1015.75 1015.98 1016.20 1016.39 1016.55 1016.70 1016.82 1016.94 1017.05 1017.16 1017.25 1017.34 1017.41 1017.48 1017.54 1017.62
1020.40 1019.97 1019.62 1019.35 1019.13 1018.93 1018.70 1018.40 1018.01 1017.55 1017.04 1016.52 1016.03 1015.62 1015.29 1015.05 1014.89 1014.78 1014.70 1014.64 1014.61 1014.61 1014.65 1014.75 1014.91 1015.11 1015.36 1015.61 1015.86 1016.09 1016.30 1016.47 1016.62 1016.75 1016.87 1016.98 1017.07 1017.16 1017.24 1017.31 1017.38 1017.47 1017.57
1020.63 1020.29 1020.00 1019.77 1019.57 1019.35 1019.06 1018.69 1018.23 1017.70 1017.13 1016.57 1016.06 1015.62 1015.26 1014.99 1014.78 1014.61 1014.48 1014.38 1014.32 1014.30 1014.34 1014.45 1014.62 1014.85 1015.10 1015.37 1015.63 1015.86 1016.07 1016.25 1016.41 1016.55 1016.68 1016.80 1016.90 1016.99 1017.07 1017.15 1017.23 1017.33 1017.46
1020.92 1020.64 1020.41 1020.21 1020.01 1019.74 1019.39 1018.95 1018.41 1017.82 1017.22 1016.64 1016.12 1015.67 1015.30 1014.99 1014.73 1014.51 1014.32 1014.15 1014.04 1013.98 1014.00 1014.10 1014.27 1014.49 1014.75 1015.01 1015.26 1015.50 1015.70 1015.89 1016.06 1016.23 1016.38 1016.52 1016.65 1016.76 1016.85 1016.94 1017.04 1017.15 1017.30
1021.21 1020.99 1020.81 1020.62 1020.39 1020.08 1019.67 1019.16 1018.57 1017.94 1017.32 1016.74 1016.22 1015.78 1015.40 1015.06 1014.75 1014.46 1014.19 1013.95 1013.76 1013.65 1013.63 1013.70 1013.85 1014.06 1014.30 1014.55 1014.80 1015.02 1015.23 1015.43 1015.62 1015.81 1015.99 1016.17 1016.32 1016.46 1016.58 1016.69 1016.80 1016.94 1017.10
1021.47 1021.31 1021.15 1020.97 1020.71 1020.35 1019.88 1019.32 1018.69 1018.05 1017.43 1016.86 1016.36 1015.93 1015.53 1015.16 1014.79 1014.43 1014.07 1013.74 1013.49 1013.31 1013.24 1013.27 1013.40 1013.59 1013.81 1014.05 1014.28 1014.49 1014.69 1014.90 1015.10 1015.31 1015.53 1015.74 1015.94 1016.11 1016.26 1016.40 1016.53 1016.67 1016.85
1021.68 1021.56 1021.43 1021.23 1020.94 1020.54 1020.02 1019.42 1018.78 1018.13 1017.52 1016.98 1016.50 1016.06 1015.65 1015.24 1014.81 1014.37 1013.93 1013.53 1013.20 1012.97 1012.85 1012.85 1012.95 1013.12 1013.33 1013.55 1013.76 1013.96 1014.15 1014.35 1014.56 1014.78 1015.02 1015.26 1015.49 1015.69 1015.87 1016.03 1016.18 1016.34 1016.52
1021.84 1021.75 1021.63 1021.41 1021.09 1020.65 1020.09 1019.46 1018.81 1018.16 1017.57 1017.04 1016.57 1016.13 1015.70 1015.25 1014.76 1014.25 1013.75 1013.28 1012.90 1012.63 1012.49 1012.47 1012.55 1012.71 1012.90 1013.10 1013.29 1013.47 1013.64 1013.82 1014.01 1014.23 1014.47 1014.72 1014.96 1015.18 1015.38 1015.57 1015.74 1015.91 1016.11
1021.98 1021.90 1021.77 1021.53 1021.17 1020.69 1020.10 1019.45 1018.78 1018.13 1017.55 1017.02 1016.55 1016.09 1015.63 1015.13 1014.60 1014.04 1013.50 1013.00 1012.59 1012.31 1012.16 1012.14 1012.23 1012.38 1012.56 1012.74 1012.90 1013.05 1013.18 1013.32 1013.48 1013.67 1013.88 1014.11 1014.34 1014.57 1014.78 1014.98 1015.17 1015.36 1015.57
1022.11 1022.04 1021.89 1021.62 1021.22 1020.69 1020.07 1019.39 1018.70 1018.05 1017.44 1016.90 1016.40 1015.91 1015.41 1014.88 1014.31 1013.73 1013.18 1012.68 1012.29 1012.02 1011.89 1011.89 1011.98 1012.13 1012.30 1012.45 1012.58 1012.69 1012.77 1012.85 1012.96 1013.09 1013.25 1013.43 1013.64 1013.85 1014.05 1014.26 1014.47 1014.68 1014.92
1022.27 1022.19 1022.01 1021.70 1021.25 1020.69 1020.03 1019.32 1018.60 1017.92 1017.28 1016.70 1016.15 1015.61 1015.07 1014.51 1013.93 1013.35 1012.81 1012.34 1011.99 1011.76 1011.67 1011.69 1011.79 1011.93 1012.08 1012.21 1012.30 1012.35 1012.38 1012.41 1012.44 1012.50 1012.60 1012.73 1012.88 1013.05 1013.24 1013.45 1013.67 1013.90 1014.17
1022.46 1022.36 1022.14 1021.79 1021.30 1020.70 1020.01 1019.26 1018.52 1017.79 1017.10 1016.46 1015.85 1015.26 1014.67 1014.08 1013.49 1012.93 1012.43 1012.02 1011.72 1011.54 1011.48 1011.52 1011.63 1011.76 1011.88 1011.97 1012.02 1012.03 1012.01 1011.97 1011.94 1011.94 1011.97 1012.03 1012.12 1012.25 1012.41 1012.60 1012.82 1013.08 1013.37
1022.66 1022.54 1022.28 1021.89 1021.37 1020.74 1020.02 1019.25 1018.47 1017.70 1016.96 1016.25 1015.57 1014.92 1014.28 1013.67 1013.08 1012.55 1012.10 1011.74 1011.50 1011.36 1011.33 1011.38 1011.47 1011.58 1011.66 1011.72 1011.73 1011.70 1011.64 1011.56 1011.48 1011.42 1011.39 1011.39 1011.42 1011.50 1011.62 1011.79 1012.01 1012.27 1012.57
1022.86 1022.70 1022.42 1022.00 1021.45 1020.81 1020.08 1019.30 1018.51 1017.70 1016.92 1016.15 1015.41 1014.69 1014.01 1013.37 1012.79 1012.28 1011.87 1011.56 1011.35 1011.24 1011.22 1011.25 1011.31 1011.37 1011.42 1011.44 1011.41 1011.36 1011.28 1011.18 1011.09 1010.99 1010.92 1010.87 1010.85 1010.88 1010.95 1011.09 1011.28 1011.53 1011.83
1023.02 1022.84 1022.53 1022.09 1021.54 1020.90 1020.18 1019.43 1018.63 1017.82 1017.01 1016.20 1015.41 1014.65 1013.93 1013.27 1012.68 1012.19 1011.80 1011.51 1011.32 1011.21 1011.16 1011.15 1011.16 1011.17 1011.17 1011.14 1011.10 1011.04 1010.96 1010.87 1010.77 1010.67 1010.57 1010.48 1010.42 1010.40 1010.42 1010.51 1010.66 1010.88 1011.16
1023.13 1022.93 1022.59 1022.15 1021.60 1020.99 1020.32 1019.60 1018.85 1018.07 1017.26 1016.45 1015.63 1014.84 1014.09 1013.41 1012.81 1012.31 1011.92 1011.63 1011.42 1011.28 1011.18 1011.11 1011.05 1010.99 1010.93 1010.87 1010.81 1010.75 1010.69 1010.62 1010.54 1010.44 1010.33 1010.22 1010.12 1010.04 1010.01 1010.05 1010.15 1010.33 1010.56
1023.17 1022.95 1022.60 1022.15 1021.64 1021.07 1020.46 1019.82 1019.14 1018.42 1017.66 1016.87 1016.06 1015.27 1014.50 1013.80 1013.19 1012.67 1012.25 1011.93 1011.67 1011.47 1011.30 1011.15 1011.01 1010.87 1010.76 1010.66 1010.58 1010.52 1010.47 1010.42 1010.36 1010.27 1010.16 1010.02 1009.88 1009.76 1009.67 1009.64 1009.69 1009.81 1010.00
1023.16 1022.92 1022.56 1022.12 1021.63 1021.12 1020.59 1020.04 1019.47 1018.84 1018.17 1017.44 1016.67 1015.89 1015.13 1014.41 1013.78 1013.23 1012.77 1012.39 1012.07 1011.79 1011.53 1011.29 1011.06 1010.85 1010.66 1010.52 1010.41 1010.34 1010.30 1010.25 1010.19 1010.10 1009.97 1009.80 1009.62 1009.44 1009.30 1009.21 1009.20 1009.27 1009.41
1023.12 1022.86 1022.49 1022.05 1021.59 1021.13 1020.69 1020.25 1019.79 1019.28 1018.71 1018.07 1017.37 1016.63 1015.88 1015.17 1014.51 1013.92 1013.41 1012.96 1012.57 1012.20 1011.86 1011.52 1011.20 1010.91 1010.66 1010.46 1010.31 1010.21 1010.13 1010.06 1009.98 1009.85 1009.68 1009.47 1009.23 1009.00 1008.80 1008.66 1008.60 1008.63 1008.73
1023.06 1022.79 1022.40 1021.97 1021.53 1021.13 1020.76 1020.42 1020.08 1019.69 1019.24 1018.69 1018.07 1017.39 1016.67 1015.96 1015.29 1014.66 1014.10 1013.59 1013.12 1012.67 1012.24 1011.82 1011.42 1011.06 1010.73 1010.47 1010.25 1010.09 1009.96 1009.82 1009.68 1009.49 1009.25 1008.97 1008.68 1008.39 1008.14 1007.96 1007.86 1007.85 1007.93
Thickness
5744 5748 5750 5752 5753 5753 5754 5754 5754 5754 5754 5754 5753 5753 5753 5753 5752 5751 5751 5750 5749 5749 5748 5747 5746 5745 5744 5743 5742 5741 5740 5739 5737 5736 5735 5734 5734 5733 5732 5731 5730 5730 5729
5744 5746 5747 5748 5749 5750 5750 5751 5751 5751 5751 5750 5750 5750 5750 5750 5749 5749 5748 5747 5747 5746 5745 5744 5743 5742 5741 5740 5739 5738 5737 5736 5734 5733 5732 5731 5731 5730 5729 5728 5727 5726 5725
5741 5742 5743 5744 5745 5746 5746 5746 5747 5747 5747 5747 5747 5747 5747 5747 5746 5746 5745 5745 5744 5744 5743 5742 5741 5740 5739 5738 5736 5735 5734 5732 5731 5730 5729 5728 5727 5727 5726 5725 5724 5723 5722
5736 5737 5739 5740 5740 5741 5742 5742 5743 5743 5743 5744 5744 5744 5744 5744 5743 5743 5743 5742 5741 5741 5740 5739 5738 5737 5735 5735 5733 5732 5731 5729 5728 5727 5726 5725 5725 5724 5723 5722 5721 5720 5718
5730 5731 5733 5734 5735 5736 5737 5738 5739 5739 5739 5740 5740 5740 5740 5740 5740 5740 5740 5739 5738 5738 5737 5736 5735 5734 5732 5731 5730 5729 5728 5726 5725 5724 5723 5722 5722 5721 5720 5718 5717 5716 5715
5723 5725 5727 5728 5730 5731 5732 5733 5734 5735 5735 5736 5736 5736 5737 5737 5737 5737 5736 5736 5735 5734 5734 5733 5732 5731 5730 5729 5727 5726 5725 5723 5722 5721 5720 5719 5719 5718 5716 5715 5713 5712 5711
5716 5718 5720 5722 5723 5725 5726 5727 5729 5730 5731 5731 5732 5732 5732 5733 5733 5733 5733 5732 5731 5731 5730 5729 5728 5727 5726 5726 5724 5723 5722 5721 5719 5718 5717 5716 5715 5715 5713 5712 5710 5709 5707
5709 5711 5713 5715 5716 5718 5720 5722 5723 5724 5725 5726 5727 5728 5728 5728 5729 5729 5729 5728 5728 5727 5727 5726 5725 5724 5723 5723 5721 5720 5719 5718 5716 5715 5714 5713 5712 5712 5710 5708 5707 5706 5704
5702 5703 5705 5707 5709 5711 5712 5715 5717 5718 5719 5721 5722 5723 5723 5724 5724 5724 5725 5725 5724 5723 5723 5722 5721 5721 5720 5719 5718 5717 5716 5714 5713 5712 5710 5710 5709 5708 5707 5705 5704 5702 5701
5693 5695 5697 5699 5701 5703 5705 5707 5709 5711 5713 5714 5716 5717 5718 5718 5719 5720 5720 5720 5720 5720 5719 5718 5717 5717 5716 5715 5715 5714 5712 5711 5709 5708 5707 5706 5706 5705 5704 5702 5700 5699 5698
5683 5685 5688 5690 5693 5695 5697 5700 5702 5704 5706 5708 5709 5711 5712 5713 5714 5714 5715 5715 5716 5715 5715 5714 5714 5713 5712 5711 5710 5710 5709 5707 5706 5705 5704 5703 5703 5702 5700 5699 5697 5696 5694
5671 5675 5678 5681 5684 5686 5689 5691 5693 5696 5698 5700 5702 5703 5705 5706 5708 5709 5710 5710 5711 5711 5710 5710 5710 5709 5707 5707 5706 5705 5704 5704 5702 5702 5701 5700 5699 5698 5697 5695 5694 5692 5691
5662 5665 5668 5671 5674 5677 5679 5682 5685 5687 5690 5692 5694 5696 5697 5699 5701 5702 5703 5704 5705 5705 5705 5705 5705 5704 5703 5702 5702 5701 5700 5699 5699 5698 5697 5696 5696 5695 5694 5692 5690 5689 5688
5653 5656 5659 5662 5665 5668 5670 5673 5676 5679 5681 5683 5685 5687 5689 5691 5693 5695 5696 5698 5699 5699 5699 5699 5699 5699 5699 5698 5697 5697 5696 5696 5695 5694 5694 5693 5692 5691 5690 5689 5687 5686 5684
5644 5647 5650 5653 5656 5658 5661 5664 5667 5670 5672 5675 5677 5679 5681 5683 5685 5687 5689 5691 5692 5693 5693 5693 5694 5694 5694 5693 5693 5692 5692 5692 5691 5691 5690 5689 5688 5688 5687 5686 5684 5682 5681
5636 5638 5641 5643 5646 5649 5651 5654 5657 5660 5663 5666 5669 5671 5672 5675 5677 5679 5681 5683 5685 5686 5687 5687 5688 5688 5688 5688 5688 5688 5688 5687 5687 5687 5686 5685 5684 5684 5683 5682 5680 5679 5677
5626 5629 5632 5635 5637 5639 5641 5644 5647 5650 5653 5656 5659 5661 5664 5666 5668 5671 5673 5675 5677 5679 5680 5681 5681 5681 5681 5682 5682 5683 5683 5683 5683 5682 5682 5681 5680 5679 5678 5677 5676 5674 5673
5617 5619 5622 5625 5627 5629 5632 5634 5637 5640 5643 5646 5649 5651 5654 5657 5659 5661 5664 5667 5669 5670 5672 5673 5674 5674 5674 5675 5676 5677 5678 5678 5678 5678 5677 5676 5675 5674 5673 5672 5671 5670 5669
5607 5610 5613 5615 5618 5620 5622 5625 5628 5630 5633 5636 5638 5641 5644 5646 5649 5652 5654 5657 5660 5661 5663 5665 5666 5667 5667 5668 5669 5670 5671 5672 5672 5672 5671 5670 5669 5668 5668 5667 5666 5664 5663
5598 5600 5603 5606 5608 5610 5613 5615 5618 5620 5623 5625 5627 5630 5632 5635 5638 5641 5644 5647 5649 5652 5654 5656 5658 5659 5660 5661 5661 5663 5664 5665 5665 5666 5666 5665 5663 5662 5662 5661 5659 5658 5657
5589 5591 5593 5595 5597 5599 5601 5603 5606 5609 5612 5614 5617 5618 5621 5624 5627 5630 5633 5635 5639 5641 5644 5647 5648 5649 5650 5651 5650 5651 5654 5656 5658 5659 5659 5658 5657 5656 5655 5654 5653 5651 5650
5577 5579 5582 5584 5586 5588 5590 5593 5595 5598 5601 5603 5605 5608 5610 5613 5615 5619 5621 5625 5628 5631 5634 5636 5638 5639 5640 5641 5641 5640 5641 5644 5648 5651 5651 5650 5649 5648 5647 5646 5645 5644 5643
5566 5568 5571 5572 5575 5577 5579 5582 5585 5587 5589 5590 5593 5596 5598 5600 5604 5607 5610 5614 5617 5620 5624 5626 5628 5629 5630 5631 5633 5632 5631 5634 5637 5640 5642 5642 5642 5640 5640 5638 5637 5636 5635
5556 5558 5560 5562 5565 5567 5568 5570 5572 5574 5576 5578 5581 5583 5586 5589 5592 5595 5598 5602 5605 5609 5613 5616 5618 5620 5621 5621 5622 5624 5625 5627 5626 5628 5630 5632 5632 5631 5631 5630 5629 5628 5626
5548 5550 5552 5554 5556 5558 5559 5560 5561 5563 5565 5567 5570 5573 5575 5578 5581 5584 5586 5589 5593 5597 5602 5605 5607 5609 5611 5612 5612 5613 5614 5615 5617 5618 5619 5620 5620 5622 5622 5622 5620 5619 5617
5540 5542 5544 5546 5548 5549 5550 5551 5553 5554 5556 5558 5560 5563 5565 5566 5568 5571 5574 5577 5581 5585 5589 5594 5596 5598 5600 5601 5602 5603 5604 5605 5607 5607 5608 5609 5609 5611 5611 5611 5610 5608 5607